星链-35741(STARLINK-35741)

导读

STARLINK-35741是美国SpaceX星链星座的一颗卫星,于2025年10月31日发射升空。星链项目旨在构建全球卫星互联网通信系统,该卫星承担着为全球偏远地区、海洋空域等场景提供低时延宽带互联网接入服务的任务,进一步扩充了星链星座的在轨服务规模,助力全球互联网络覆盖能力提升。

基本信息
目录编号:
66272
目录名称:
STARLINK-35741
国际标识:
2025-247H
轨道中心:
EARTH
卫星名称:
星链-35741
卫星全名:
星链-35741(STARLINK-35741)
卫星状态:
在轨 (已飞行225 天)
发射日期:
2025-10-31 UTC
国别 :
美国 (US)
星等 :
--
轨道信息
数据来源 国际轨道数据 AOE轨道数据
星历时间 2026-06-12T11:57:50+0800
1天前
查看轨道信息
2026-06-08T17:00:00+0800
5天前
查看轨道信息
半长轴 6840.808km 6840.921km
偏心率 0.0001307 0.0001207
轨道倾角 53.158° 53.159°
近地点辐角 113.510° 75.123°
升交点赤经 110.821° 128.543°
平近点角 246.604° 217.109°
近地点 461.776km 461.958km
远地点 463.566km 463.61km
周期 93.847分钟 93.849分钟
每日圈数 15.34411 15.343729
详细信息
固有亮度:
5
最大亮度:
2.5
卫星平台:
Starlink V1.0
覆盖范围:
全球
运营商:
太空探索技术公司
运营商所在国:
美国
制造商(研发单位):
太空探索技术公司
制造商所在国:
美国
使用方式:
暂无
卫星简介
Starlink 计划是 SpaceX 推出的全球卫星互联网项目,通过发射低轨道卫星,为全球尤其是偏远地区提供高速、低延迟的互联网服务。自 2019 年起,Starlink 已部署数千颗卫星,旨在缩小全球数字鸿沟,推动互联网普及。该项目还为军事、航空等行业提供通信支持,带来广泛经济效益。
2D轨道图
3D轨道图
轨道高度分析图
轨道倾角分析图
轨道综合分析图
查看轨道综合分析图